| time (UTC) | temp F | wind direction | speed MPH | gust MPH | rain 1hr in | rain 24hr in | rain mn in | humidity % | barometer mb |
| 20260505025047 | 59 | 336 | 7.0 | 16.0 | 0.00 | 0.00 | 0.00 | 43 | 1007.1 |
| 20260505024547 | 59 | 350 | 8.0 | 15.0 | 0.00 | 0.00 | 0.00 | 43 | 1006.7 |
| 20260505024048 | 59 | 327 | 6.0 | 15.0 | 0.00 | 0.00 | 0.00 | 43 | 1006.6 |
| 20260505023547 | 59 | 346 | 10.0 | 16.0 | 0.00 | 0.00 | 0.00 | 43 | 1006.5 |
| 20260505023047 | 59 | 344 | 11.0 | 21.0 | 0.00 | 0.00 | 0.00 | 42 | 1006.2 |
| 20260505022547 | 59 | 340 | 10.0 | 17.0 | 0.00 | 0.00 | 0.00 | 42 | 1006.1 |
| 20260505022047 | 60 | 349 | 9.0 | 16.0 | 0.00 | 0.00 | 0.00 | 42 | 1006.0 |
| 20260505021547 | 60 | 352 | 10.0 | 20.0 | 0.00 | 0.00 | 0.00 | 41 | 1005.9 |
| 20260505021048 | 60 | 327 | 11.0 | 22.0 | 0.00 | 0.00 | 0.00 | 41 | 1006.1 |
| 20260505020547 | 60 | 347 | 12.0 | 21.0 | 0.00 | 0.00 | 0.00 | 40 | 1006.0 |
| 20260505020047 | 61 | 336 | 11.0 | 22.0 | 0.00 | 0.00 | 0.00 | 40 | 1006.0 |
| 20260505015547 | 61 | 328 | 9.0 | 17.0 | 0.00 | 0.00 | 0.00 | 40 | 1005.8 |
| 20260505015047 | 61 | 330 | 13.0 | 22.0 | 0.00 | 0.00 | 0.00 | 39 | 1005.5 |
| 20260505013048 | 63 | 330 | 13.0 | 23.0 | 0.00 | 0.00 | 0.00 | 36 | 1005.1 |
| 20260505012547 | 64 | 328 | 12.0 | 24.0 | 0.00 | 0.00 | 0.00 | 35 | 1005.0 |
| 20260505012047 | 64 | 334 | 12.0 | 18.0 | 0.00 | 0.00 | 0.00 | 34 | 1005.0 |
| 20260505011547 | 65 | 328 | 7.0 | 14.0 | 0.00 | 0.00 | 0.00 | 34 | 1005.0 |
| 20260505011047 | 65 | 340 | 8.0 | 17.0 | 0.00 | 0.00 | 0.00 | 33 | 1004.7 |
| 20260505010548 | 65 | 337 | 12.0 | 21.0 | 0.00 | 0.00 | 0.00 | 33 | 1004.8 |
| 20260505010048 | 66 | 330 | 13.0 | 21.0 | 0.00 | 0.00 | 0.00 | 32 | 1004.7 |
| 20260505005547 | 67 | 324 | 13.0 | 22.0 | 0.00 | 0.00 | 0.00 | 32 | 1004.4 |
| 20260505005047 | 67 | 338 | 12.0 | 21.0 | 0.00 | 0.00 | 0.00 | 31 | 1004.4 |
| 20260505004548 | 68 | 329 | 12.0 | 21.0 | 0.00 | 0.00 | 0.00 | 31 | 1004.3 |
| 20260505004047 | 68 | 337 | 11.0 | 18.0 | 0.00 | 0.00 | 0.00 | 31 | 1004.3 |
| 20260505003547 | 69 | 327 | 9.0 | 18.0 | 0.00 | 0.00 | 0.00 | 32 | 1003.9 |
| 20260505002547 | 69 | 343 | 10.0 | 18.0 | 0.00 | 0.00 | 0.00 | 30 | 1004.1 |
| 20260505002047 | 69 | 334 | 12.0 | 18.0 | 0.00 | 0.00 | 0.00 | 30 | 1003.7 |
| 20260505001547 | 70 | 318 | 13.0 | 20.0 | 0.00 | 0.00 | 0.00 | 29 | 1003.8 |
| 20260505001048 | 70 | 322 | 11.0 | 21.0 | 0.00 | 0.00 | 0.00 | 29 | 1003.8 |
| 20260505000547 | 70 | 331 | 11.0 | 18.0 | 0.00 | 0.00 | 0.00 | 29 | 1003.7 |
| 20260505000047 | 71 | 328 | 13.0 | 17.0 | 0.00 | 0.00 | 0.00 | 28 | 1003.7 |
| 20260504235547 | 71 | 328 | 12.0 | 20.0 | 0.00 | 0.00 | 0.00 | 28 | 1003.6 |
| 20260504235047 | 72 | 333 | 8.0 | 14.0 | 0.00 | 0.00 | 0.00 | 28 | 1003.6 |
| 20260504234548 | 73 | 325 | 14.0 | 17.0 | 0.00 | 0.00 | 0.00 | 27 | 1003.5 |
| 20260504234047 | 73 | 332 | 10.0 | 23.0 | 0.00 | 0.00 | 0.00 | 27 | 1003.6 |
| 20260504233547 | 73 | 331 | 12.0 | 20.0 | 0.00 | 0.00 | 0.00 | 26 | 1003.5 |
| 20260504233047 | 74 | 339 | 10.0 | 16.0 | 0.00 | 0.00 | 0.00 | 26 | 1003.3 |
| 20260504232547 | 74 | 332 | 10.0 | 20.0 | 0.00 | 0.00 | 0.00 | 26 | 1003.1 |
| 20260504232047 | 74 | 326 | 12.0 | 18.0 | 0.00 | 0.00 | 0.00 | 25 | 1003.0 |
| 20260504231048 | 75 | 340 | 8.0 | 15.0 | 0.00 | 0.00 | 0.00 | 26 | 1002.9 |
| 20260504230547 | 76 | 332 | 11.0 | 16.0 | 0.00 | 0.00 | 0.00 | 26 | 1002.7 |
| 20260504230048 | 76 | 337 | 12.0 | 18.0 | 0.00 | 0.00 | 0.00 | 24 | 1002.7 |
| 20260504225548 | 76 | 330 | 11.0 | 21.0 | 0.00 | 0.00 | 0.00 | 25 | 1002.6 |
| 20260504224547 | 77 | 333 | 11.0 | 18.0 | 0.00 | 0.00 | 0.00 | 24 | 1002.4 |
| 20260504224048 | 78 | 326 | 10.0 | 16.0 | 0.00 | 0.00 | 0.00 | 24 | 1002.3 |
| 20260504223548 | 78 | 336 | 11.0 | 18.0 | 0.00 | 0.00 | 0.00 | 24 | 1002.1 |
| 20260504223048 | 79 | 348 | 7.0 | 12.0 | 0.00 | 0.00 | 0.00 | 26 | 1002.0 |
| 20260504222548 | 79 | 346 | 6.0 | 12.0 | 0.00 | 0.00 | 0.00 | 27 | 1001.8 |
| 20260504222048 | 79 | 355 | 7.0 | 16.0 | 0.00 | 0.00 | 0.00 | 26 | 1001.8 |
| 20260504221548 | 80 | 334 | 8.0 | 14.0 | 0.00 | 0.00 | 0.00 | 25 | 1001.8 |
| 20260504221047 | 80 | 343 | 8.0 | 15.0 | 0.00 | 0.00 | 0.00 | 26 | 1001.5 |
| 20260504220048 | 80 | 9 | 7.0 | 14.0 | 0.00 | 0.00 | 0.00 | 27 | 1001.4 |
| 20260504215547 | 80 | 320 | 12.0 | 16.0 | 0.00 | 0.00 | 0.00 | 26 | 1001.3 |
| 20260504215047 | 80 | 334 | 10.0 | 16.0 | 0.00 | 0.00 | 0.00 | 27 | 1001.4 |
| 20260504214548 | 80 | 350 | 8.0 | 14.0 | 0.00 | 0.00 | 0.00 | 28 | 1001.4 |
| 20260504214048 | 81 | 318 | 11.0 | 14.0 | 0.00 | 0.00 | 0.00 | 26 | 1001.4 |
| 20260504213547 | 81 | 338 | 10.0 | 13.0 | 0.00 | 0.00 | 0.00 | 27 | 1001.4 |
| 20260504213047 | 81 | 321 | 10.0 | 15.0 | 0.00 | 0.00 | 0.00 | 27 | 1001.3 |
| 20260504212548 | 81 | 330 | 9.0 | 17.0 | 0.00 | 0.00 | 0.00 | 26 | 1001.3 |
| 20260504212048 | 81 | 318 | 12.0 | 16.0 | 0.00 | 0.00 | 0.00 | 26 | 1001.2 |
| 20260504211547 | 82 | 318 | 11.0 | 15.0 | 0.00 | 0.00 | 0.00 | 27 | 1001.2 |
| 20260504211047 | 81 | 329 | 9.0 | 16.0 | 0.00 | 0.00 | 0.00 | 26 | 1001.1 |
| 20260504210547 | 82 | 343 | 7.0 | 12.0 | 0.00 | 0.00 | 0.00 | 27 | 1001.1 |
| 20260504210048 | 82 | 333 | 10.0 | 16.0 | 0.00 | 0.00 | 0.00 | 27 | 1001.1 |
| 20260504205047 | 83 | 321 | 10.0 | 16.0 | 0.00 | 0.00 | 0.00 | 27 | 1001.1 |
| 20260504204547 | 83 | 322 | 7.0 | 15.0 | 0.00 | 0.00 | 0.00 | 24 | 1001.0 |
| 20260504204048 | 83 | 322 | 10.0 | 16.0 | 0.00 | 0.00 | 0.00 | 23 | 1001.1 |
| 20260504203547 | 83 | 330 | 10.0 | 17.0 | 0.00 | 0.00 | 0.00 | 24 | 1001.1 |
| 20260504203048 | 83 | 318 | 7.0 | 18.0 | 0.00 | 0.00 | 0.00 | 24 | 1001.0 |
| 20260504202548 | 83 | 330 | 8.0 | 13.0 | 0.00 | 0.00 | 0.00 | 24 | 1001.0 |
| 20260504202047 | 83 | 320 | 11.0 | 15.0 | 0.00 | 0.00 | 0.00 | 23 | 1001.0 |
| 20260504201547 | 83 | 324 | 9.0 | 14.0 | 0.00 | 0.00 | 0.00 | 24 | 1001.0 |
| 20260504201048 | 83 | 308 | 7.0 | 14.0 | 0.00 | 0.00 | 0.00 | 22 | 1001.0 |
| 20260504200047 | 84 | 308 | 7.0 | 13.0 | 0.00 | 0.00 | 0.00 | 20 | 1001.0 |
| 20260504195548 | 84 | 315 | 10.0 | 16.0 | 0.00 | 0.00 | 0.00 | 20 | 1001.0 |
| 20260504195048 | 84 | 325 | 10.0 | 16.0 | 0.00 | 0.00 | 0.00 | 22 | 1000.9 |
| 20260504194548 | 83 | 327 | 7.0 | 15.0 | 0.00 | 0.00 | 0.00 | 22 | 1000.9 |
| 20260504193548 | 84 | 325 | 9.0 | 18.0 | 0.00 | 0.00 | 0.00 | 20 | 1000.8 |
| 20260504193048 | 84 | 309 | 6.0 | 16.0 | 0.00 | 0.00 | 0.00 | 20 | 1000.8 |
| 20260504192548 | 83 | 315 | 12.0 | 21.0 | 0.00 | 0.00 | 0.00 | 21 | 1000.6 |
| 20260504192048 | 83 | 324 | 9.0 | 14.0 | 0.00 | 0.00 | 0.00 | 22 | 1000.9 |
| 20260504191547 | 83 | 311 | 9.0 | 17.0 | 0.00 | 0.00 | 0.00 | 22 | 1000.9 |
| 20260504190547 | 84 | 338 | 10.0 | 16.0 | 0.00 | 0.00 | 0.00 | 22 | 1000.9 |
| 20260504190048 | 84 | 305 | 3.0 | 9.0 | 0.00 | 0.00 | 0.00 | 20 | 1000.9 |
| 20260504185548 | 84 | 293 | 7.0 | 13.0 | 0.00 | 0.00 | 0.00 | 19 | 1000.9 |
| 20260504185048 | 84 | 320 | 10.0 | 16.0 | 0.00 | 0.00 | 0.00 | 19 | 1000.8 |
| 20260504184548 | 84 | 331 | 10.0 | 17.0 | 0.00 | 0.00 | 0.00 | 19 | 1000.9 |
| 20260504184048 | 84 | 317 | 5.0 | 12.0 | 0.00 | 0.00 | 0.00 | 19 | 1000.9 |
| 20260504183548 | 84 | 317 | 6.0 | 10.0 | 0.00 | 0.00 | 0.00 | 18 | 1001.0 |
| 20260504183048 | 83 | 299 | 6.0 | 15.0 | 0.00 | 0.00 | 0.00 | 20 | 1001.0 |
| 20260504182548 | 82 | 318 | 9.0 | 15.0 | 0.00 | 0.00 | 0.00 | 24 | 1001.0 |
| 20260504182048 | 82 | 322 | 9.0 | 14.0 | 0.00 | 0.00 | 0.00 | 24 | 1001.1 |
| 20260504181547 | 82 | 324 | 10.0 | 16.0 | 0.00 | 0.00 | 0.00 | 24 | 1001.2 |
| 20260504181048 | 82 | 333 | 6.0 | 13.0 | 0.00 | 0.00 | 0.00 | 23 | 1001.2 |
| 20260504180547 | 82 | 257 | 3.0 | 12.0 | 0.00 | 0.00 | 0.00 | 27 | 1001.2 |
| 20260504180047 | 82 | 307 | 5.0 | 10.0 | 0.00 | 0.00 | 0.00 | 26 | 1001.3 |
| 20260504175547 | 81 | 258 | 3.0 | 8.0 | 0.00 | 0.00 | 0.00 | 29 | 1001.3 |
| 20260504175047 | 81 | 332 | 7.0 | 12.0 | 0.00 | 0.00 | 0.00 | 26 | 1001.3 |
| 20260504174048 | 81 | 323 | 7.0 | 15.0 | 0.00 | 0.00 | 0.00 | 26 | 1001.5 |
| 20260504173548 | 81 | 318 | 11.0 | 15.0 | 0.00 | 0.00 | 0.00 | 25 | 1001.5 |
| 20260504173047 | 82 | 320 | 9.0 | 13.0 | 0.00 | 0.00 | 0.00 | 25 | 1001.5 |
| 20260504172547 | 81 | 323 | 6.0 | 13.0 | 0.00 | 0.00 | 0.00 | 27 | 1001.5 |
| 20260504172048 | 81 | 320 | 4.0 | 12.0 | 0.00 | 0.00 | 0.00 | 26 | 1001.5 |
| 20260504171548 | 81 | 304 | 6.0 | 9.0 | 0.00 | 0.00 | 0.00 | 26 | 1001.8 |
| 20260504171048 | 81 | 322 | 6.0 | 8.0 | 0.00 | 0.00 | 0.00 | 25 | 1001.6 |
| 20260504170548 | 82 | 309 | 5.0 | 9.0 | 0.00 | 0.00 | 0.00 | 27 | 1001.6 |
| 20260504151048 | 70 | 311 | 2.0 | 6.0 | 0.00 | 0.00 | 0.00 | 40 | 1001.8 |
| 20260504150548 | 70 | 300 | 4.0 | 8.0 | 0.00 | 0.00 | 0.00 | 43 | 1001.6 |
| 20260504141048 | 66 | 305 | 5.0 | 9.0 | 0.00 | 0.00 | 0.00 | 50 | 1002.2 |
| 20260504140548 | 65 | 297 | 2.0 | 7.0 | 0.00 | 0.00 | 0.00 | 49 | 1002.1 |
| 20260504130548 | 59 | 110 | 0.0 | 0.0 | 0.00 | 0.00 | 0.00 | 63 | 1001.5 |
| 20260504110548 | 57 | 127 | 1.0 | 2.0 | 0.00 | 0.00 | 0.00 | 59 | 1001.5 |
| 20260504100548 | 58 | 167 | 3.0 | 5.0 | 0.00 | 0.00 | 0.00 | 55 | 1001.8 |
| 20260504081548 | 58 | 120 | 0.0 | 1.0 | 0.00 | 0.00 | 0.00 | 54 | 1003.3 |
| 20260504081048 | 58 | 173 | 2.0 | 5.0 | 0.00 | 0.00 | 0.00 | 54 | 1003.2 |
| 20260504080548 | 58 | 194 | 3.0 | 6.0 | 0.00 | 0.00 | 0.00 | 54 | 1003.3 |
| 20260504050548 | 61 | 176 | 0.0 | 0.0 | 0.00 | 0.00 | 0.00 | 47 | 1006.4 |
| 20260504045048 | 60 | 128 | 0.0 | 0.0 | 0.00 | 0.00 | 0.00 | 47 | 1006.6 |
| 20260504044549 | 61 | 128 | 0.0 | 0.0 | 0.00 | 0.00 | 0.00 | 48 | 1006.6 |
| 20260504044048 | 61 | 128 | 0.0 | 0.0 | 0.00 | 0.00 | 0.00 | 47 | 1006.7 |
| 20260504043548 | 61 | 128 | 0.0 | 0.0 | 0.00 | 0.00 | 0.00 | 47 | 1006.8 |
| 20260504042548 | 61 | 128 | 0.0 | 0.0 | 0.00 | 0.00 | 0.00 | 47 | 1006.9 |
| 20260504042049 | 61 | 128 | 0.0 | 0.0 | 0.00 | 0.00 | 0.00 | 47 | 1006.8 |
| 20260504041549 | 61 | 128 | 0.0 | 0.0 | 0.00 | 0.00 | 0.00 | 47 | 1006.9 |
| 20260504041048 | 62 | 128 | 0.0 | 0.0 | 0.00 | 0.00 | 0.00 | 46 | 1006.8 |
| 20260504040548 | 62 | 128 | 0.0 | 0.0 | 0.00 | 0.00 | 0.00 | 46 | 1006.9 |
| 20260504035548 | 62 | 128 | 0.0 | 0.0 | 0.00 | 0.00 | 0.00 | 46 | 1007.0 |
| 20260504035048 | 62 | 128 | 0.0 | 0.0 | 0.00 | 0.00 | 0.00 | 47 | 1007.0 |
| 20260504034548 | 63 | 128 | 0.0 | 0.0 | 0.00 | 0.00 | 0.00 | 47 | 1007.0 |
| 20260504034049 | 63 | 128 | 0.0 | 0.0 | 0.00 | 0.00 | 0.00 | 47 | 1007.1 |
| 20260504033548 | 63 | 128 | 0.0 | 0.0 | 0.00 | 0.00 | 0.00 | 47 | 1007.2 |
| 20260504033049 | 63 | 128 | 0.0 | 0.0 | 0.00 | 0.00 | 0.00 | 46 | 1007.2 |
| 20260504032548 | 63 | 128 | 0.0 | 0.0 | 0.00 | 0.00 | 0.00 | 46 | 1007.2 |
| 20260504032050 | 63 | 128 | 0.0 | 0.0 | 0.00 | 0.00 | 0.00 | 44 | 1007.2 |
| 20260504031548 | 64 | 128 | 0.0 | 2.0 | 0.00 | 0.00 | 0.00 | 43 | 1007.2 |
| 20260504031048 | 64 | 185 | 2.0 | 3.0 | 0.00 | 0.00 | 0.00 | 42 | 1007.2 |
| 20260504030549 | 64 | 237 | 0.0 | 0.0 | 0.00 | 0.00 | 0.00 | 42 | 1007.2 |
| 20260504030049 | 64 | 237 | 0.0 | 0.0 | 0.00 | 0.00 | 0.00 | 41 | 1007.2 |
| 20260504025549 | 64 | 237 | 0.0 | 0.0 | 0.00 | 0.00 | 0.00 | 40 | 1007.3 |